Weather History for Chariton, IA

Change the Weather History Date:

Sunday, May 5, 2013

  Actual Average Record
Temperature  
Mean Temperature 51 °F -  
Max Temperature 60 °F 71 °F 89 °F (1962)
Min Temperature 42 °F 46 °F 28 °F (1954)
Degree Days  
Heating Degree Days 14    
Growing Degree Days 1 (Base 50)    
Moisture  
Dew Point 48 °F    
Average Humidity 95    
Maximum Humidity 100    
Minimum Humidity 77    
Precipitation  
Precipitation 0.00 in - - ()
Sea Level Pressure  
Sea Level Pressure 30.06 in    
Wind  
Wind Speed 9 mph (NNW)    
Max Wind Speed 15 mph    
Max Gust Speed 20 mph    
Visibility 4 miles    
Events Fog    
Averages and records for this station are not official NWS values.
T = Trace of Precipitation, MM = Missing Value Source: NWS Daily Summary

Daily Weather History Graph

Daily Weather History Graph

Search for Another Location

Airport:

Trip Planner

Search our weather history database for the weather conditions in past years. The results will help you decide how hot, cold, wet, or windy it might be!

Date:

Astronomy

May. 05, 2013 Rise Set
Actual Time 6:06 AM CDT 8:14 PM CDT
Civil Twilight 5:35 AM CDT 8:45 PM CDT
Nautical Twilight 4:58 AM CDT 9:22 PM CDT
Astronomical Twilight 4:18 AM CDT 10:03 PM CDT
Moon 3:39 AM CDT (5/5) 4:13 PM CDT (5/5)
Length of Visible Light 15h 09m
Length of Day
14h 08m
Waning Crescent, 18% of the Moon is Illuminated
May 5
Waning Crescent
May 9
New
May 17
First Quarter
May 24
Full
May 31
Last Quarter

Hourly Weather History & Observations

Time (CDT) Temp. Windchill Dew Point Humidity Pressure Visibility Wind Dir Wind Speed Gust Speed Precip Events Conditions
12:15 AM 42.8 °F 39.3 °F 42.8 °F 100% 30.07 in 3.0 mi NW 5.8 mph - N/A   Overcast
12:35 AM 42.8 °F 38.6 °F 42.8 °F 100% 30.06 in 3.0 mi NW 6.9 mph - N/A   Overcast
12:55 AM 42.8 °F 38.0 °F 42.8 °F 100% 30.06 in 3.0 mi NW 8.1 mph - N/A   Overcast
1:15 AM 42.8 °F 38.0 °F 42.8 °F 100% 30.06 in 3.0 mi NNW 8.1 mph - N/A   Overcast
1:35 AM 42.8 °F 37.5 °F 42.8 °F 100% 30.05 in 3.0 mi NNW 9.2 mph - N/A   Overcast
1:55 AM 42.8 °F 38.0 °F 42.8 °F 100% 30.05 in 3.0 mi NNW 8.1 mph - N/A   Overcast
2:15 AM 42.8 °F 37.5 °F 42.8 °F 100% 30.04 in 2.5 mi NW 9.2 mph - N/A   Overcast
2:35 AM 42.8 °F 38.6 °F 42.8 °F 100% 30.04 in 2.0 mi NNW 6.9 mph - N/A   Overcast
2:55 AM 42.8 °F 38.6 °F 42.8 °F 100% 30.03 in 2.0 mi NNW 6.9 mph - N/A   Overcast
3:15 AM 42.8 °F 38.6 °F 42.8 °F 100% 30.03 in 1.8 mi NNW 6.9 mph - N/A   Overcast
3:35 AM 42.8 °F 38.0 °F 42.8 °F 100% 30.03 in 1.8 mi NNW 8.1 mph - N/A   Overcast
3:55 AM 42.8 °F 37.5 °F 42.8 °F 100% 30.04 in 2.0 mi North 9.2 mph - N/A   Overcast
4:15 AM 42.8 °F 38.0 °F 42.8 °F 100% 30.04 in 2.5 mi NNW 8.1 mph - N/A   Overcast
4:35 AM 42.8 °F 38.6 °F 42.8 °F 100% 30.04 in 1.5 mi NNW 6.9 mph - N/A   Overcast
4:55 AM 42.8 °F 38.6 °F 42.8 °F 100% 30.05 in 1.8 mi NNW 6.9 mph - N/A   Overcast
5:15 AM 42.8 °F 39.3 °F 42.8 °F 100% 30.06 in 2.5 mi North 5.8 mph - N/A   Overcast
5:55 AM 42.8 °F 39.3 °F 42.8 °F 100% 30.06 in 0.2 mi NNW 5.8 mph - N/A Fog Fog
6:15 AM 42.8 °F 38.0 °F 42.8 °F 100% 30.05 in 0.2 mi NNW 8.1 mph - N/A Fog Fog
6:35 AM 42.8 °F 38.0 °F 42.8 °F 100% 30.06 in 0.2 mi NNW 8.1 mph - N/A   Overcast
6:55 AM 42.8 °F 38.0 °F 42.8 °F 100% 30.07 in 0.2 mi NNW 8.1 mph - N/A Fog Fog
7:15 AM 42.8 °F 36.6 °F 42.8 °F 100% 30.08 in 0.2 mi North 11.5 mph - N/A Fog Fog
7:35 AM 44.6 °F 39.7 °F 42.8 °F 93% 30.08 in 0.2 mi NNW 9.2 mph - N/A Fog Fog
7:55 AM 44.6 °F 39.7 °F 44.6 °F 100% 30.08 in 0.2 mi NNW 9.2 mph - N/A Fog Fog
8:15 AM 44.6 °F 39.7 °F 44.6 °F 100% 30.09 in 0.2 mi NNW 9.2 mph - N/A Fog Fog
8:35 AM 44.6 °F 40.2 °F 44.6 °F 100% 30.09 in 0.2 mi NNW 8.1 mph - N/A Fog Fog
8:55 AM 44.6 °F 39.2 °F 44.6 °F 100% 30.10 in 0.2 mi NNW 10.4 mph - N/A Fog Fog
9:15 AM 44.6 °F 40.2 °F 44.6 °F 100% 30.10 in 0.5 mi NNW 8.1 mph - N/A Fog Fog
9:35 AM 46.4 °F 41.5 °F 46.4 °F 100% 30.09 in 0.2 mi NW 10.4 mph - N/A Fog Fog
9:55 AM 46.4 °F 41.5 °F 46.4 °F 100% 30.10 in - NNW 10.4 mph - N/A   Overcast
10:15 AM 46.4 °F 41.1 °F 46.4 °F 100% 30.09 in 1.0 mi NNW 11.5 mph - N/A   Overcast
10:35 AM 46.4 °F 42.4 °F 46.4 °F 100% 30.10 in 1.0 mi NNW 8.1 mph - N/A   Overcast
10:55 AM 48.2 °F - 46.4 °F 93% 30.10 in 1.2 mi NW 10.4 mph - N/A   Overcast
11:15 AM 48.2 °F - 48.2 °F 100% 30.10 in 3.0 mi NNW 9.2 mph 15.0 mph N/A   Overcast
11:35 AM 50.0 °F - 48.2 °F 94% 30.10 in 4.0 mi NNW 10.4 mph - N/A   Overcast
11:55 AM 50.0 °F - 48.2 °F 94% 30.10 in 3.0 mi North 6.9 mph - N/A   Overcast
1:15 PM 51.8 °F - 51.8 °F 100% 30.08 in 4.0 mi NW 9.2 mph - N/A   Overcast
1:35 PM 53.6 °F - 51.8 °F 94% 30.08 in 6.0 mi NNW 9.2 mph - N/A   Mostly Cloudy
2:35 PM 57.2 °F - 53.6 °F 88% 30.06 in 9.0 mi NNW 10.4 mph - N/A   Mostly Cloudy
2:55 PM 57.2 °F - 53.6 °F 88% 30.06 in 9.0 mi NW 9.2 mph - N/A   Mostly Cloudy
3:15 PM 57.2 °F - 53.6 °F 88% 30.05 in 8.0 mi NW 12.7 mph 18.4 mph N/A   Mostly Cloudy
3:35 PM 59.0 °F - 53.6 °F 82% 30.04 in 9.0 mi NNW 11.5 mph - N/A   Mostly Cloudy
3:55 PM 60.8 °F - 55.4 °F 82% 30.04 in 9.0 mi NNW 12.7 mph - N/A   Mostly Cloudy
4:15 PM 60.8 °F - 55.4 °F 82% 30.03 in 9.0 mi NW 12.7 mph - N/A   Scattered Clouds
4:35 PM 60.8 °F - 55.4 °F 82% 30.04 in 9.0 mi NW 11.5 mph 19.6 mph N/A   Mostly Cloudy
4:55 PM 60.8 °F - 55.4 °F 82% 30.04 in 9.0 mi NW 12.7 mph - N/A   Mostly Cloudy
5:15 PM 60.8 °F - 53.6 °F 77% 30.05 in 9.0 mi NNW 10.4 mph - N/A   Mostly Cloudy
5:35 PM 59.0 °F - 55.4 °F 88% 30.04 in 9.0 mi NW 12.7 mph - N/A   Overcast
5:55 PM 59.0 °F - 53.6 °F 82% 30.04 in 8.0 mi NW 13.8 mph - N/A   Mostly Cloudy
6:15 PM 59.0 °F - 53.6 °F 82% 30.04 in 9.0 mi NW 13.8 mph - N/A   Scattered Clouds
6:35 PM 59.0 °F - 53.6 °F 82% 30.04 in 9.0 mi NW 15.0 mph - N/A   Mostly Cloudy
6:55 PM 59.0 °F - 53.6 °F 82% 30.04 in 8.0 mi NW 11.5 mph 17.3 mph N/A   Scattered Clouds
7:15 PM 57.2 °F - 53.6 °F 88% 30.04 in - NW 11.5 mph 17.3 mph N/A   Mostly Cloudy
7:35 PM 57.2 °F - 53.6 °F 88% 30.04 in 8.0 mi NW 11.5 mph - N/A   Mostly Cloudy
7:55 PM 55.4 °F - 51.8 °F 88% 30.04 in 7.0 mi NW 12.7 mph - N/A   Partly Cloudy
8:15 PM 55.4 °F - 51.8 °F 88% 30.04 in 7.0 mi NW 12.7 mph - N/A   Clear
8:35 PM 53.6 °F - 51.8 °F 94% 30.04 in 5.0 mi NW 11.5 mph - N/A   Clear
8:55 PM 53.6 °F - 51.8 °F 94% 30.05 in 6.0 mi NW 11.5 mph - N/A   Partly Cloudy
9:35 PM 53.6 °F - 51.8 °F 94% 30.05 in 5.0 mi NNW 12.7 mph 18.4 mph N/A   Overcast
9:55 PM 53.6 °F - 51.8 °F 94% 30.06 in 4.0 mi NW 12.7 mph 19.6 mph N/A   Overcast
10:15 PM 51.8 °F - 51.8 °F 100% 30.06 in 4.0 mi NW 12.7 mph - N/A   Overcast
10:35 PM 51.8 °F - 51.8 °F 100% 30.06 in 4.0 mi NW 12.7 mph - N/A   Overcast
10:55 PM 51.8 °F - 51.8 °F 100% 30.06 in 4.0 mi NNW 13.8 mph - N/A   Overcast
11:15 PM 51.8 °F - 51.8 °F 100% 30.06 in 3.0 mi NNW 11.5 mph - N/A   Overcast
11:35 PM 51.8 °F - 50.0 °F 94% 30.06 in 3.0 mi NNW 11.5 mph - N/A   Overcast
11:55 PM 51.8 °F - 50.0 °F 94% 30.06 in 3.0 mi NNW 11.5 mph - N/A   Overcast